Lalas, Greece

5:08 AM EET on December 09, 2016 (GMT +0200)
Eleftherios Venizelos International

Weather History for LGAV - September, 2013

Change the Weather History Date:

Friday, September 13, 2013

  Actual Average Record
Temperature  
Mean Temperature 81 °F -  
Max Temperature 93 °F - - ()
Min Temperature 69 °F - - ()
Cooling Degree Days 16    
Growing Degree Days 31 (Base 50)    
Moisture  
Dew Point 60 °F    
Average Humidity 49    
Maximum Humidity 69    
Minimum Humidity 26    
Precipitation  
Precipitation 0.00 in - - ()
Sea Level Pressure  
Sea Level Pressure 29.93 in    
Wind  
Wind Speed 5 mph ()    
Max Wind Speed 16 mph    
Max Gust Speed -    
Visibility 6.2 miles    
Events      
T = Trace of Precipitation, MM = Missing Value Source: Averaged Metar Reports

Daily Weather History Graph

Daily Weather History Graph

Search for Another Location

Airport or City:

Trip Planner

Search our weather history database for the weather conditions in past years. The results will help you decide how hot, cold, wet, or windy it might be!

Date:

Astronomy

Sep. 13, 2013 Rise Set
Actual Time 7:04 AM EEST 7:35 PM EEST
Civil Twilight 6:37 AM EEST 8:01 PM EEST
Nautical Twilight 6:06 AM EEST 8:32 PM EEST
Astronomical Twilight 5:34 AM EEST 9:04 PM EEST
Moon 3:03 PM EEST (9/13) 12:19 AM EEST (9/13)
Length of Visible Light 13h 23m
Length of Day
12h 31m
First Quarter, 58% of the Moon is Illuminated
Sep 13
First Quarter
Sep 19
Full
Sep 27
Last Quarter
Oct 5
New
Oct 12
First Quarter

Hourly Weather History & Observations

Time (EEST) Temp. Heat Index Dew Point Humidity Pressure Visibility Wind Dir Wind Speed Gust Speed Precip Events Conditions
12:20 AM 78.8 °F - 60.8 °F 54% 29.92 in - SSW 5.8 mph - N/A   Clear
12:50 AM 77.0 °F - 60.8 °F 57% 29.92 in - SSW 2.3 mph - N/A   Clear
1:50 AM 75.2 °F - 59.0 °F 57% 29.92 in - Variable 2.3 mph - N/A   Clear
2:20 AM 73.4 °F - 59.0 °F 61% 29.92 in - Variable 3.5 mph - N/A   Clear
2:50 AM 73.4 °F - 60.8 °F 65% 29.92 in - Variable 3.5 mph - N/A   Clear
3:20 AM 73.4 °F - 60.8 °F 65% 29.92 in - SE 3.5 mph - N/A   Clear
3:50 AM 75.2 °F - 60.8 °F 61% 29.92 in - Variable 2.3 mph - N/A   Clear
4:20 AM 75.2 °F - 60.8 °F 61% 29.92 in - Variable 2.3 mph - N/A   Clear
4:50 AM 73.4 °F - 60.8 °F 65% 29.92 in - Variable 1.2 mph - N/A   Clear
5:20 AM 73.4 °F - 60.8 °F 65% 29.92 in - Variable 2.3 mph - N/A   Clear
5:50 AM 73.4 °F - 60.8 °F 65% 29.92 in - Variable 1.2 mph - N/A   Clear
6:20 AM 69.8 °F - 57.2 °F 64% 29.92 in - Variable 2.3 mph - N/A   Clear
6:50 AM 73.4 °F - 60.8 °F 65% 29.92 in - Variable 2.3 mph - N/A   Clear
7:20 AM 71.6 °F - 60.8 °F 69% 29.92 in - Variable 2.3 mph - N/A   Clear
7:50 AM 73.4 °F - 60.8 °F 65% 29.95 in 6.2 mi Variable 2.3 mph - N/A   Partly Cloudy
8:20 AM 75.2 °F - 60.8 °F 61% 29.95 in 6.2 mi Variable 3.5 mph - N/A   Scattered Clouds
8:50 AM 80.6 °F 82.3 °F 64.4 °F 58% 29.95 in 6.2 mi Variable 3.5 mph - N/A   Scattered Clouds
9:20 AM 82.4 °F 82.9 °F 60.8 °F 48% 29.95 in 6.2 mi Variable 2.3 mph - N/A   Scattered Clouds
9:50 AM 84.2 °F 83.8 °F 59.0 °F 42% 29.95 in 6.2 mi Variable 1.2 mph - N/A   Mostly Cloudy
10:20 AM 84.2 °F 83.8 °F 59.0 °F 42% 29.95 in 6.2 mi Variable 2.3 mph - N/A   Mostly Cloudy
10:50 AM 86.0 °F 86.1 °F 60.8 °F 43% 29.95 in 6.2 mi ESE 4.6 mph - N/A   Mostly Cloudy
11:20 AM 86.0 °F 84.9 °F 57.2 °F 37% 29.95 in 6.2 mi NE 5.8 mph - N/A   Mostly Cloudy
11:50 AM 86.0 °F 86.1 °F 60.8 °F 43% 29.95 in 6.2 mi East 6.9 mph - N/A   Mostly Cloudy
12:20 PM 84.2 °F 84.4 °F 60.8 °F 45% 29.95 in 6.2 mi ENE 6.9 mph - N/A   Mostly Cloudy
12:50 PM 84.2 °F 84.4 °F 60.8 °F 45% 29.95 in 6.2 mi East 6.9 mph - N/A   Mostly Cloudy
1:20 PM 89.6 °F 88.1 °F 57.2 °F 33% 29.95 in 6.2 mi Variable 3.5 mph - N/A   Mostly Cloudy
1:50 PM 91.4 °F 90.7 °F 59.0 °F 34% 29.95 in 6.2 mi East 9.2 mph - N/A   Mostly Cloudy
2:20 PM 93.2 °F 90.8 °F 53.6 °F 26% 29.95 in 6.2 mi ESE 5.8 mph - N/A   Mostly Cloudy
2:50 PM 91.4 °F 89.1 °F 53.6 °F 28% 29.92 in 6.2 mi SE 5.8 mph - N/A   Mostly Cloudy
3:20 PM 91.4 °F 89.1 °F 53.6 °F 28% 29.92 in 6.2 mi SE 4.6 mph - N/A   Mostly Cloudy
3:50 PM 91.4 °F 91.4 °F 60.8 °F 36% 29.92 in 6.2 mi SW 13.8 mph - N/A   Mostly Cloudy
4:20 PM 89.6 °F 91.1 °F 64.4 °F 43% 29.92 in 6.2 mi SSW 15.0 mph - N/A   Scattered Clouds
4:50 PM 87.8 °F 90.4 °F 66.2 °F 49% 29.92 in 6.2 mi SSW 15.0 mph - N/A   Scattered Clouds
5:20 PM 87.8 °F 88.5 °F 62.6 °F 43% 29.92 in 6.2 mi South 13.8 mph - N/A   Scattered Clouds
5:50 PM 87.8 °F 88.5 °F 62.6 °F 43% 29.92 in 6.2 mi SSW 12.7 mph - N/A   Scattered Clouds
6:20 PM 86.0 °F 86.1 °F 60.8 °F 43% 29.92 in 6.2 mi WSW 13.8 mph - N/A   Mostly Cloudy
6:50 PM 86.0 °F 86.6 °F 62.6 °F 45% 29.92 in 6.2 mi SSW 11.5 mph - N/A   Mostly Cloudy
7:20 PM 84.2 °F 85.0 °F 62.6 °F 48% 29.92 in 6.2 mi WSW 16.1 mph - N/A   Mostly Cloudy
7:50 PM 82.4 °F 83.4 °F 62.6 °F 51% 29.92 in 6.2 mi WSW 12.7 mph - N/A   Mostly Cloudy
8:20 PM 84.2 °F 83.8 °F 59.0 °F 42% 29.92 in 6.2 mi WSW 11.5 mph - N/A   Mostly Cloudy
8:50 PM 82.4 °F 82.5 °F 59.0 °F 45% 29.92 in 6.2 mi West 10.4 mph - N/A   Scattered Clouds
9:20 PM 82.4 °F 82.5 °F 59.0 °F 45% 29.92 in 6.2 mi West 12.7 mph - N/A   Scattered Clouds
9:50 PM 82.4 °F 82.0 °F 57.2 °F 42% 29.92 in 6.2 mi West 12.7 mph - N/A   Partly Cloudy
10:20 PM 82.4 °F 82.0 °F 57.2 °F 42% 29.92 in 6.2 mi West 10.4 mph - N/A   Partly Cloudy
10:50 PM 82.4 °F 82.0 °F 57.2 °F 42% 29.95 in 6.2 mi West 12.7 mph - N/A   Partly Cloudy
11:20 PM 80.6 °F 80.8 °F 57.2 °F 45% 29.95 in 6.2 mi West 12.7 mph - N/A   Partly Cloudy
11:50 PM 82.4 °F 81.7 °F 55.4 °F 39% 29.92 in 6.2 mi West 15.0 mph - N/A   Partly Cloudy